East Haven, CT

8:31 AM EST on February 19, 2017 (GMT -0500)
Tweed-New Haven

Weather History for KHVN - August, 2014

Change the Weather History Date:

Sunday, August 24, 2014

  Actual Average Record
Temperature  
Mean Temperature 66 °F -  
Max Temperature 75 °F 77 °F 93 °F (1980)
Min Temperature 57 °F 62 °F 51 °F (1971)
Cooling Degree Days 1    
Growing Degree Days 16 (Base 50)    
Moisture  
Dew Point 57 °F    
Average Humidity 71    
Maximum Humidity 90    
Minimum Humidity 55    
Precipitation  
Precipitation 0.00 in - - ()
Sea Level Pressure  
Sea Level Pressure 30.14 in    
Wind  
Wind Speed 4 mph (NE)    
Max Wind Speed 9 mph    
Max Gust Speed -    
Visibility 10 miles    
Events      
Averages and records for this station are not official NWS values.
T = Trace of Precipitation, MM = Missing Value Source: NWS Daily Summary

Daily Weather History Graph

Daily Weather History Graph

Search for Another Location

Airport or City:

Trip Planner

Search our weather history database for the weather conditions in past years. The results will help you decide how hot, cold, wet, or windy it might be!

Date:

Astronomy

Aug. 24, 2014 Rise Set
Actual Time 6:09 AM EDT 7:37 PM EDT
Civil Twilight 5:40 AM EDT 8:05 PM EDT
Nautical Twilight 5:06 AM EDT 8:40 PM EDT
Astronomical Twilight 4:29 AM EDT 9:17 PM EDT
Moon 5:17 AM EDT (8/24) 6:53 PM EDT (8/24)
Length of Visible Light 14h 25m
Length of Day
13h 27m
Waning Crescent, 1% of the Moon is Illuminated
Aug 24
Waning Crescent
Aug 25
New
Sep 2
First Quarter
Sep 8
Full
Sep 15
Last Quarter

Hourly Weather History & Observations

Time (EDT) Temp. Dew Point Humidity Pressure Visibility Wind Dir Wind Speed Gust Speed Precip Events Conditions
12:53 AM 61.0 °F 53.1 °F 75% 30.14 in 10.0 mi NNE 4.6 mph - N/A   Clear
1:53 AM 61.0 °F 55.0 °F 81% 30.14 in 10.0 mi North 3.5 mph - N/A   Clear
2:53 AM 59.0 °F 54.0 °F 83% 30.13 in 10.0 mi Calm Calm - N/A   Clear
3:53 AM 59.0 °F 54.0 °F 83% 30.13 in 10.0 mi NNE 3.5 mph - N/A   Clear
4:53 AM 59.0 °F 55.0 °F 87% 30.12 in 10.0 mi North 4.6 mph - N/A   Partly Cloudy
5:53 AM 57.9 °F 55.0 °F 90% 30.13 in 10.0 mi North 4.6 mph - N/A   Partly Cloudy
6:53 AM 60.1 °F 57.0 °F 90% 30.14 in 10.0 mi NNE 3.5 mph - N/A   Scattered Clouds
7:53 AM 64.0 °F 57.9 °F 80% 30.15 in 10.0 mi Calm Calm - N/A   Scattered Clouds
8:53 AM 68.0 °F 57.0 °F 68% 30.14 in 10.0 mi North 8.1 mph - N/A   Partly Cloudy
9:53 AM 71.1 °F 57.9 °F 63% 30.15 in 10.0 mi NNE 5.8 mph - N/A   Clear
10:53 AM 73.0 °F 59.0 °F 61% 30.15 in 10.0 mi South 6.9 mph - N/A   Partly Cloudy
11:53 AM 73.9 °F 57.0 °F 55% 30.14 in 10.0 mi South 9.2 mph - N/A   Partly Cloudy
12:53 PM 73.0 °F 57.0 °F 57% 30.14 in 10.0 mi South 8.1 mph - N/A   Mostly Cloudy
1:53 PM 73.9 °F 57.9 °F 57% 30.13 in 10.0 mi South 6.9 mph - N/A   Scattered Clouds
2:53 PM 75.0 °F 59.0 °F 57% 30.13 in 10.0 mi South 8.1 mph - N/A   Scattered Clouds
3:53 PM 75.9 °F 59.0 °F 56% 30.12 in 10.0 mi South 8.1 mph - N/A   Partly Cloudy
4:53 PM 75.9 °F 59.0 °F 56% 30.12 in 10.0 mi Variable 6.9 mph - N/A   Clear
5:53 PM 75.9 °F 59.0 °F 56% 30.12 in 10.0 mi SE 5.8 mph - N/A   Clear
6:53 PM 73.9 °F 59.0 °F 59% 30.13 in 10.0 mi ESE 4.6 mph - N/A   Clear
7:53 PM 71.1 °F 59.0 °F 66% 30.13 in 10.0 mi Calm Calm - N/A   Clear
8:53 PM 68.0 °F 59.0 °F 73% 30.15 in 10.0 mi ENE 3.5 mph - N/A   Clear
9:53 PM 64.4 °F 59.0 °F 83% 30.16 in 10.0 mi North 3.5 mph - N/A   Clear
10:53 PM 64.0 °F 57.9 °F 80% 30.15 in 10.0 mi North 3.5 mph - N/A   Clear
11:53 PM 62.1 °F 57.0 °F 84% 30.16 in 10.0 mi Calm Calm - N/A   Clear